Temp_Advection
nan nan nan nan nan nan nan nan nan nan nan nan nan nan nan nan nan nan nan nan nan nan nan nan nan nan nan nan nan nan nan nan nan nan nan nan nan nan nan nan nan nan nan nan nan nan nan
nan -0 -0 0 0 0 0 -0 -0 0 0 -0 0 0 -0 -0 0 0 0 0 0 0 -0 -0 0 0 0 -1 -1 0 0 -0 0 0 0 -0 -0 -0 -0 0 -0 -1 -1 -1 -0 -1 nan
nan -0 -0 0 0 0 0 -0 -0 0 0 0 0 0 -0 -0 0 0 0 0 -0 -0 -0 0 0 0 -0 -1 -0 0 -0 0 -0 -0 0 -0 -0 0 -0 -0 -0 -0 -0 -0 -1 -1 nan
nan -1 -0 0 -0 0 0 -0 -0 0 0 0 0 0 0 -0 0 0 0 0 0 -0 0 0 0 0 -0 -1 -0 -0 0 0 -0 0 -0 -0 0 -0 -0 -0 -0 -0 -0 -0 -1 -0 nan
nan -2 -1 -0 -0 -0 0 -0 -0 -0 -0 0 0 0 0 0 0 0 0 0 0 0 0 0 0 0 -0 -0 -0 -0 0 0 -0 0 -0 -0 0 0 0 0 -0 -0 -0 -0 -1 -0 nan
nan -2 -2 -1 -0 -0 -0 -0 -0 0 0 -0 0 0 0 0 0 0 0 0 0 0 0 -0 -0 -0 -1 -0 -0 0 0 0 0 0 0 0 1 0 0 0 -1 -0 -0 -0 -0 -0 nan
nan -1 -2 -2 -1 -0 -0 -0 0 -0 -0 0 0 0 0 0 0 0 0 0 0 0 -0 -0 -0 -0 -0 0 0 0 0 0 0 1 0 0 0 -0 -0 -0 -0 -0 -1 -1 -0 -0 nan
nan -0 -1 -2 -2 -1 -1 -0 -0 -0 -0 0 0 0 0 0 0 0 0 0 -0 -0 -0 -1 -0 -0 -0 0 0 -0 0 0 0 1 0 -0 -1 -1 -0 -0 0 0 -0 -1 -1 -0 nan
nan -0 -1 -1 -2 -1 -1 -0 -0 -0 -0 0 0 0 0 0 0 0 0 -0 -0 0 -0 -0 0 0 -0 0 0 -0 -0 -0 0 0 -0 -0 0 -0 0 0 -0 0 -0 -1 -1 -1 nan
nan -0 -1 -1 -1 -2 -1 -0 -0 -0 -0 0 0 0 0 0 -0 0 -0 -0 0 0 -0 -0 0 -0 -0 0 -0 -0 -0 0 0 -0 -0 -0 -0 -0 0 -0 -0 -0 -1 -0 -0 0 nan
nan -1 -1 -1 -1 -1 -1 -1 -1 -0 -0 0 0 0 0 0 -0 0 -0 0 0 -0 -0 0 -0 0 -0 0 0 -0 0 0 0 -0 -0 -0 -0 -0 -0 -1 -0 -1 -0 -0 0 0 nan
nan -1 -1 -1 -1 -1 -1 -1 -1 0 -0 0 0 0 0 0 0 -0 0 -0 -0 -0 -0 -0 -0 0 0 -0 -0 -0 0 0 0 -0 0 -0 -0 0 -0 -0 -0 0 -0 -0 0 0 nan
nan -0 -1 -1 -1 -1 -1 -1 -1 -1 -0 -0 0 0 0 -1 0 0 0 0 -0 -0 -0 -0 -0 -0 0 -0 -0 0 0 0 0 0 0 0 -0 -0 0 -0 -0 0 0 0 0 -0 nan
nan -0 -0 -1 -1 -1 -1 -1 -0 -1 -1 -0 0 1 1 0 0 -0 -0 0 -0 -0 0 -0 -0 0 0 -0 0 0 0 0 -0 0 -0 0 -0 -0 -0 -0 -0 0 0 -0 -0 -0 nan
nan -0 -0 -1 -1 -1 -1 -1 -0 -1 -1 0 0 0 0 0 0 0 -0 -0 -0 -0 -0 -0 -0 0 -0 0 0 0 -0 -0 -0 -0 -0 -0 -0 -0 -0 -0 -0 -0 -1 0 -0 -0 nan
nan -0 -0 -1 -1 -0 -1 -1 -1 -1 -0 -0 0 -0 -0 0 0 0 0 -0 -0 -0 -0 0 0 -0 -0 0 0 -0 -0 -1 -0 -1 -1 -0 -0 -0 -0 0 -0 -0 -0 0 -0 -0 nan
nan -0 -0 -0 -1 -1 -1 -0 -1 -1 -0 0 -0 -0 -0 0 -0 -0 -0 -0 -0 0 -0 0 0 -0 -0 -0 -0 -0 -0 -0 -0 -0 0 -0 0 0 -0 -0 -0 0 -0 -1 -0 -0 nan
nan -0 -0 -0 -1 -0 -1 -0 -1 -1 -0 1 -0 -0 0 -0 -0 -0 -0 -0 -0 0 0 0 -0 -0 -0 -0 -0 -0 -1 -0 -0 -0 0 -0 -0 -0 -1 -1 0 -0 -1 -0 -0 0 nan
nan -0 -0 -0 -0 -0 -0 -1 -1 -1 -0 0 -0 -0 -0 -0 -0 -0 -0 -0 0 0 0 0 -0 -0 -0 -0 -0 -1 -0 -1 -0 -0 -0 -0 -0 -0 -0 0 -0 -0 -0 -0 0 -0 nan
nan -0 -0 -1 -1 -1 -0 -1 -1 -0 -0 -0 0 -0 -0 -0 -0 -0 -0 -0 0 0 0 -0 -0 -0 -0 -0 -0 -0 -1 -0 -0 -0 -1 -0 0 -0 -0 -0 -0 -0 -0 1 1 -0 nan
nan -0 -0 -0 -1 -1 -0 -0 -1 -1 -1 -0 0 0 -0 -0 -0 -0 -0 0 0 0 -0 -0 0 -0 -0 -0 -0 -0 -0 -0 0 -1 -0 -0 0 -0 -1 -1 -1 -0 0 0 -2 -3 nan
nan -0 -0 -0 -0 -0 -1 -1 -1 -1 1 0 0 0 -0 -0 -0 -0 -0 0 -0 -0 -0 -0 -0 -0 0 -0 -0 -0 -0 -0 -0 -0 -0 -0 0 -0 -1 -1 -1 -0 -1 -2 -1 -0 nan
nan -0 -0 -0 -1 -0 -0 -1 -1 -0 -0 0 -0 0 0 -0 -0 -0 -0 -0 -0 -0 -0 -0 -0 0 -0 -1 -0 0 0 -0 -0 -0 -0 -0 -0 -0 -0 0 0 -0 -0 -0 -0 -0 nan
nan -0 -0 -0 -1 -1 -0 -0 -0 -0 -0 -1 0 0 0 0 -0 -0 0 -0 -0 -0 0 0 0 -0 -1 -0 0 0 -0 -0 0 -0 -0 -0 -0 -0 -0 -0 0 -0 -0 -0 0 0 nan
nan -0 -0 -0 -0 -0 -0 -0 -0 -0 1 -0 0 0 0 0 0 0 -0 -0 -0 0 0 -0 0 -0 -0 0 -0 0 -0 -0 -0 0 0 -0 -0 -0 -0 -0 -0 -0 -0 0 -0 -0 nan
nan -0 -0 -0 -0 -0 -0 -0 -0 -1 -0 -0 -0 0 0 0 -0 0 -0 0 -0 -0 0 0 0 0 1 0 -0 0 0 0 -0 0 -0 0 -0 -0 -0 0 0 -0 -0 -0 -0 0 nan
nan -0 -0 -0 -0 -0 -1 -0 -0 -0 0 -0 -0 0 0 0 -0 0 0 -0 0 0 0 0 0 0 0 0 0 -0 -0 0 0 0 -0 0 0 0 -0 -0 -1 -0 -0 -0 -0 0 nan
nan -0 -0 -0 -0 -1 -0 -0 -0 -1 -0 -0 -0 0 0 -0 0 0 0 0 0 -0 0 -0 0 -0 0 0 -0 -0 -0 0 0 0 -0 0 -0 -0 -0 -0 -0 0 0 0 0 -0 nan
nan nan nan nan nan nan nan nan nan nan nan nan nan nan nan nan nan nan nan nan nan nan nan nan nan nan nan nan nan nan nan nan nan nan nan nan nan nan nan nan nan nan nan nan nan nan nan
Wind_Speed
26 26 22 20 19 23 21 19 19 19 17 17 15 13 12 11 9 7 6 5 4 4 4 5 5 6 5 11 17 4 4 7 4 2 20 19 12 11 5 5 10 14 16 22 29 32 33
28 26 26 22 20 22 24 22 19 18 18 17 15 13 12 12 10 7 6 6 5 4 4 4 4 6 9 13 13 18 16 12 4 3 3 19 10 12 14 9 11 10 14 26 30 28 31
21 27 29 26 23 21 24 23 20 18 18 16 14 16 14 12 12 9 7 6 6 6 6 6 4 7 14 24 8 8 12 13 13 9 6 9 16 16 5 5 10 13 14 16 20 29 17
25 26 25 29 26 23 23 24 21 20 19 18 14 14 14 11 12 9 8 8 7 9 8 7 5 6 11 14 19 13 15 16 19 16 11 8 7 9 9 8 9 4 5 14 12 10 17
29 25 24 23 25 25 22 23 22 22 20 19 17 13 12 12 11 10 9 8 8 9 8 8 7 7 11 11 16 24 14 15 12 10 7 14 12 8 6 3 4 4 9 8 6 8 6
31 29 26 30 28 24 23 24 23 22 22 20 17 15 12 12 10 11 11 8 6 7 8 8 9 4 13 10 10 17 23 14 12 8 6 10 8 5 2 4 12 8 6 11 8 6 12
30 30 29 25 28 27 25 27 26 25 23 21 19 16 13 13 10 14 12 7 5 4 14 11 12 7 4 4 4 8 19 22 17 12 4 10 6 11 11 9 11 8 16 13 11 9 12
32 32 31 26 23 23 29 28 28 26 23 20 19 18 14 14 11 15 13 8 8 3 6 19 28 19 15 9 5 13 12 15 16 15 5 6 17 11 10 12 10 14 15 21 15 15 8
33 32 32 32 31 25 27 28 27 25 23 20 20 19 16 15 14 18 19 15 14 10 5 8 27 26 29 23 17 15 20 23 9 9 12 16 5 14 12 13 14 16 17 16 16 14 15
33 34 33 34 28 30 24 19 26 26 25 22 21 20 17 17 16 19 20 13 13 7 3 4 4 7 15 14 7 30 28 20 7 16 12 14 14 16 12 18 14 17 16 15 16 10 10
36 36 34 34 33 28 27 21 29 26 26 25 22 21 20 19 8 21 9 14 9 5 4 6 5 2 1 12 9 12 27 26 15 10 9 8 7 14 18 24 16 15 13 12 11 12 15
35 37 36 34 33 32 26 27 28 29 25 27 24 23 22 23 17 14 13 17 12 3 8 6 5 4 3 12 8 2 10 19 5 13 14 15 6 4 14 15 16 3 2 8 6 6 11
37 38 36 36 34 29 24 26 24 30 26 29 26 25 27 27 25 19 21 16 3 4 2 5 4 6 8 9 12 8 5 12 5 5 7 6 15 5 3 2 6 4 3 4 5 6 10
36 37 36 36 35 27 26 25 12 36 28 33 29 27 25 22 20 25 22 3 6 5 6 3 3 8 7 8 10 11 3 7 12 6 1 6 5 13 10 10 7 8 14 6 7 6 7
35 37 36 38 34 39 31 23 11 25 25 31 33 29 29 27 20 26 20 4 6 5 3 6 5 6 5 7 5 10 12 5 7 16 7 5 8 4 14 12 13 7 12 19 4 4 3
35 36 38 39 37 40 29 28 17 15 23 35 36 34 32 30 26 33 3 6 5 1 6 5 9 10 7 7 9 9 8 9 8 15 17 3 6 3 9 11 11 11 11 11 5 5 6
34 35 37 38 36 36 25 19 16 16 20 39 42 17 26 33 35 18 3 7 4 9 9 6 7 4 5 7 10 6 6 7 13 11 18 9 6 6 2 12 16 12 7 8 4 8 2
34 34 35 38 39 37 23 19 28 16 13 45 26 5 22 36 7 5 5 5 5 3 8 11 6 7 5 10 10 5 10 7 9 5 14 7 4 5 17 9 13 16 14 10 6 7 9
33 34 34 37 40 39 31 24 33 13 20 35 21 8 32 43 6 5 5 8 8 6 6 7 9 11 9 8 4 13 7 11 20 9 13 9 4 5 6 6 5 14 13 9 9 4 12
33 33 35 35 39 41 33 28 34 7 30 30 10 4 10 18 4 10 8 8 9 7 13 10 4 5 8 5 10 6 12 6 16 14 25 14 4 5 5 4 5 7 21 12 10 6 4
31 31 34 33 36 39 37 31 25 12 42 25 7 3 10 8 8 5 10 4 9 5 11 4 5 12 5 5 5 6 4 2 4 21 5 5 5 3 16 21 16 13 16 17 19 19 7
29 31 32 31 35 35 41 37 24 19 25 17 10 5 9 8 16 14 8 5 5 4 5 3 5 7 11 7 6 3 7 4 4 9 4 4 4 4 5 7 14 15 20 19 10 2 7
29 30 31 29 33 33 33 36 20 22 9 6 9 11 9 7 8 7 7 11 12 11 11 15 11 7 10 15 13 4 9 6 7 10 7 9 3 5 4 12 13 3 9 7 3 1 4
28 29 29 27 30 32 32 34 18 14 23 7 17 15 5 3 3 7 3 11 14 14 11 7 12 12 7 12 6 3 2 7 2 4 9 7 6 3 4 5 2 4 1 6 7 4 3
26 28 29 26 29 31 29 30 22 18 13 8 15 11 6 2 6 8 8 6 4 2 3 11 20 14 21 5 3 2 1 1 4 4 2 3 4 2 2 2 4 3 3 3 6 4 1
26 26 27 26 28 30 29 28 17 19 17 1 17 14 6 3 4 5 3 1 1 3 4 4 9 6 16 2 3 4 3 3 3 2 4 5 3 2 3 1 1 3 3 4 1 1 3
26 26 25 26 27 29 27 23 19 15 12 6 13 18 9 6 7 6 3 2 2 1 2 2 6 3 5 2 1 3 4 6 6 5 5 4 3 5 2 2 6 4 2 4 4 4 3
25 24 24 24 25 28 24 22 17 15 8 7 16 14 17 6 6 5 6 4 3 3 2 1 4 2 2 5 4 3 3 5 4 4 7 7 5 3 3 2 6 5 2 4 4 3 12
25 25 23 24 25 26 23 21 16 13 12 5 17 15 15 6 4 7 8 9 9 7 6 9 2 6 6 3 3 2 2 4 5 4 3 4 6 6 6 5 2 4 2 7 10 17 17
Wind_Direction
314 317 318 286 277 283 266 269 279 288 294 292 281 277 271 263 270 267 269 273 276 270 273 264 258 253 212 221 230 160 118 84 74 230 229 229 236 247 236 253 257 248 243 243 238 243 260
300 306 312 306 278 278 278 262 271 281 288 294 271 270 275 256 254 260 269 276 268 269 270 271 249 236 212 241 261 236 230 260 264 333 271 207 216 231 274 247 250 281 268 247 247 240 248
299 290 298 304 298 272 279 257 266 270 275 285 280 270 268 260 244 250 258 271 274 264 263 266 268 257 246 240 205 199 239 228 225 213 232 232 225 244 302 322 292 272 259 263 254 244 250
307 292 289 291 300 280 268 255 258 264 266 272 274 276 263 259 242 242 252 265 255 260 248 255 259 249 248 261 241 231 203 213 229 230 219 222 248 289 249 275 315 281 271 241 245 256 248
318 295 303 283 290 291 266 253 258 261 260 263 264 267 264 252 237 228 241 260 268 247 238 241 256 238 266 279 246 219 203 221 228 222 248 257 258 254 283 178 263 250 261 269 274 238 252
318 319 312 293 279 280 266 250 255 257 263 258 259 258 252 241 238 221 233 239 258 238 233 235 226 265 252 250 266 229 209 209 207 233 254 223 223 215 190 205 234 246 231 258 247 230 242
330 324 315 318 300 270 268 254 251 252 251 253 249 242 242 232 234 212 220 221 245 222 211 206 205 196 255 241 210 233 207 209 221 246 217 241 211 217 218 230 253 277 282 278 267 241 225
331 330 320 309 309 310 261 254 251 249 248 244 241 233 236 228 223 209 214 199 211 189 269 245 243 244 229 129 233 228 202 195 206 220 205 272 244 217 217 221 225 241 261 268 277 277 231
330 328 325 316 305 307 305 252 244 240 239 237 235 228 228 219 211 205 216 213 238 269 271 230 240 238 229 235 233 222 188 204 198 208 203 223 147 210 217 226 231 231 232 250 254 297 297
332 328 325 326 307 302 292 263 242 236 234 231 230 221 214 203 208 208 217 216 236 270 281 215 229 266 225 223 247 220 209 188 217 206 205 241 236 248 229 229 222 240 236 255 260 261 257
330 331 325 328 320 312 290 286 261 236 231 227 224 216 208 202 194 193 198 183 183 167 308 146 170 203 182 181 138 212 207 207 205 192 183 219 162 207 225 236 212 253 240 262 255 254 268
328 329 326 325 325 314 284 282 251 245 228 225 217 210 197 183 182 179 164 152 163 115 249 172 150 190 169 199 227 219 190 209 232 233 233 244 269 215 234 244 232 202 342 291 243 275 258
324 328 328 328 321 321 288 274 259 252 224 221 209 200 196 188 183 167 166 142 142 202 158 182 189 186 209 195 216 204 195 203 186 193 214 244 253 255 105 260 236 149 208 231 225 217 242
323 328 330 331 306 313 308 271 277 243 217 216 198 191 189 192 196 188 169 128 207 206 214 126 167 195 197 192 212 214 185 211 214 228 20 198 267 197 182 205 197 190 197 215 207 208 223
329 329 333 332 321 335 322 269 295 255 203 206 184 176 176 186 178 180 155 196 209 202 81 154 162 203 198 216 213 204 216 211 217 197 186 202 237 283 192 174 188 185 202 217 329 278 208
328 331 332 335 316 329 307 286 313 249 199 189 179 173 184 185 178 168 170 227 222 202 120 162 205 191 197 197 191 190 189 195 212 199 196 181 278 211 246 179 213 215 162 198 174 248 183
331 328 328 332 321 333 320 306 307 312 209 194 169 160 192 183 175 174 208 209 252 227 162 198 206 217 244 177 187 195 217 246 204 193 188 172 209 171 250 197 185 188 211 202 185 234 289
331 330 328 331 322 341 327 337 314 271 229 191 160 148 181 177 176 195 212 184 242 206 217 225 227 241 248 178 190 226 216 220 226 170 182 173 204 225 237 249 195 196 220 181 187 199 230
334 331 330 331 326 343 338 295 337 246 210 162 147 113 175 174 187 197 209 226 239 221 218 203 211 221 209 157 209 211 207 233 233 153 156 165 230 254 172 187 210 198 196 208 205 117 253
332 331 331 331 331 342 346 316 333 1 187 169 145 135 152 190 183 197 209 226 224 212 241 246 241 276 254 252 198 198 227 255 176 170 141 152 239 250 279 332 156 178 188 185 210 239 219
329 332 330 331 333 339 345 340 329 353 195 169 139 145 158 179 211 213 196 205 214 212 213 228 232 220 239 250 205 191 206 240 172 141 90 105 284 292 271 252 252 176 182 197 219 237 120
329 332 332 330 334 341 345 339 327 322 189 169 139 156 164 169 193 201 213 179 230 187 216 232 210 209 216 237 207 226 178 172 194 159 122 121 270 281 279 178 187 178 200 208 233 119 110
330 332 332 333 335 337 341 338 310 4 11 157 160 153 157 160 168 180 206 216 217 218 217 227 245 242 221 246 251 310 322 256 191 166 153 149 236 301 343 163 168 229 196 180 185 297 112
330 331 331 331 332 334 340 338 317 359 350 267 167 162 132 150 173 214 246 213 225 216 219 198 231 234 239 240 196 213 38 324 127 95 149 179 202 262 312 14 57 236 345 203 176 204 171
329 330 329 330 334 336 339 339 324 344 27 204 186 182 133 156 196 228 278 249 55 193 240 269 258 231 214 231 99 163 339 347 43 76 39 172 159 304 26 298 272 353 14 109 160 249 113
328 328 330 329 334 337 342 340 308 319 349 268 213 209 145 117 210 157 283 247 136 335 252 234 219 155 166 178 127 172 167 151 257 93 265 157 111 71 355 21 123 267 326 330 37 276 42
327 325 330 327 333 338 339 339 321 328 359 221 224 223 202 167 210 216 252 256 148 332 271 298 152 150 179 115 213 164 176 159 167 186 172 146 175 181 264 303 292 254 296 320 111 235 328
325 330 329 326 330 335 339 339 321 304 10 215 219 213 206 181 208 201 196 197 213 197 240 164 115 157 143 156 210 213 149 194 155 174 182 177 151 165 165 221 281 175 68 158 183 94 116
326 327 326 325 328 332 338 339 325 305 339 205 222 223 212 201 233 228 228 245 263 254 260 194 314 191 169 146 218 151 176 152 147 193 216 183 186 166 184 207 211 152 121 130 142 135 135
Height
1491 1489 1487 1486 1485 1485 1484 1484 1483 1483 1482 1481 1480 1481 1481 1481 1482 1482 1483 1483 1484 1484 1484 1485 1485 1488 1490 1493 1486 1488 1488 1488 1489 1491 1493 1497 1499 1500 1499 1495 1495 1491 1491 1490 1489 1488 1485
1486 1485 1482 1481 1480 1479 1479 1479 1478 1478 1478 1478 1477 1477 1478 1478 1479 1480 1481 1481 1481 1482 1483 1484 1484 1486 1488 1487 1483 1486 1487 1488 1489 1489 1490 1493 1494 1496 1495 1493 1493 1487 1487 1483 1482 1480 1481
1481 1479 1478 1476 1474 1473 1472 1473 1473 1474 1474 1474 1474 1473 1474 1475 1476 1477 1478 1478 1479 1480 1482 1483 1483 1483 1483 1478 1481 1481 1484 1486 1487 1487 1489 1490 1492 1494 1490 1488 1487 1484 1483 1477 1473 1475 1475
1475 1474 1470 1470 1468 1467 1466 1467 1468 1469 1470 1470 1470 1470 1471 1471 1472 1474 1476 1476 1476 1478 1479 1481 1481 1482 1476 1474 1477 1479 1481 1482 1484 1486 1487 1487 1489 1488 1488 1487 1483 1482 1478 1478 1471 1473 1470
1470 1467 1466 1463 1462 1461 1460 1461 1463 1464 1465 1465 1465 1465 1467 1468 1469 1471 1473 1474 1475 1476 1477 1479 1480 1481 1474 1470 1471 1474 1478 1480 1483 1485 1486 1485 1486 1486 1486 1487 1487 1485 1482 1481 1476 1469 1471
1465 1462 1459 1457 1456 1455 1455 1455 1456 1457 1459 1459 1461 1462 1463 1464 1466 1469 1470 1472 1473 1474 1476 1477 1477 1482 1471 1468 1469 1470 1475 1480 1481 1482 1484 1484 1483 1483 1484 1487 1483 1482 1486 1479 1476 1467 1468
1462 1457 1454 1450 1449 1448 1447 1448 1449 1450 1452 1454 1455 1457 1458 1460 1463 1465 1468 1470 1474 1474 1472 1467 1466 1465 1465 1465 1469 1469 1472 1477 1480 1481 1484 1480 1482 1479 1486 1485 1485 1484 1480 1474 1467 1464 1464
1458 1453 1448 1445 1442 1438 1438 1440 1441 1444 1445 1448 1450 1452 1454 1457 1459 1461 1464 1464 1467 1468 1466 1463 1462 1463 1463 1464 1467 1467 1471 1476 1477 1478 1482 1483 1470 1477 1478 1480 1482 1484 1484 1474 1469 1465 1465
1455 1449 1444 1439 1435 1431 1429 1430 1433 1436 1439 1442 1444 1447 1449 1453 1456 1457 1459 1460 1464 1466 1465 1456 1454 1454 1458 1461 1461 1463 1467 1470 1472 1477 1477 1474 1467 1471 1474 1477 1478 1477 1478 1475 1473 1466 1460
1451 1446 1440 1434 1430 1426 1424 1420 1424 1428 1432 1436 1439 1442 1444 1449 1455 1453 1453 1458 1462 1465 1463 1451 1451 1449 1451 1456 1454 1457 1460 1465 1469 1469 1473 1468 1468 1468 1470 1470 1471 1473 1466 1469 1469 1472 1469
1447 1441 1435 1429 1424 1421 1419 1415 1415 1420 1424 1429 1432 1436 1439 1443 1446 1448 1451 1453 1461 1464 1468 1448 1448 1447 1448 1451 1449 1451 1454 1458 1459 1461 1466 1457 1458 1462 1467 1456 1467 1461 1466 1466 1465 1467 1472
1443 1437 1430 1424 1419 1414 1411 1411 1409 1413 1417 1421 1426 1430 1435 1439 1443 1447 1448 1450 1461 1464 1462 1443 1443 1445 1447 1446 1447 1448 1452 1455 1455 1456 1456 1455 1456 1456 1456 1457 1460 1458 1464 1464 1463 1468 1467
1439 1432 1425 1419 1414 1409 1406 1405 1403 1402 1409 1414 1419 1423 1429 1432 1437 1444 1446 1450 1459 1455 1436 1439 1439 1442 1442 1442 1445 1445 1449 1450 1450 1451 1454 1455 1454 1455 1456 1458 1455 1460 1468 1470 1477 1471 1450
1435 1428 1421 1414 1409 1402 1398 1397 1393 1395 1401 1405 1412 1418 1424 1429 1433 1440 1444 1450 1446 1428 1428 1432 1435 1438 1439 1438 1439 1442 1446 1444 1446 1450 1453 1455 1458 1446 1445 1450 1450 1456 1463 1460 1464 1448 1439
1431 1424 1417 1410 1403 1397 1392 1389 1387 1387 1393 1399 1399 1412 1420 1423 1429 1436 1440 1442 1430 1422 1422 1428 1434 1434 1434 1436 1439 1439 1440 1442 1437 1443 1453 1445 1443 1433 1430 1436 1444 1448 1451 1446 1457 1441 1435
1428 1421 1414 1406 1398 1393 1387 1380 1379 1379 1386 1387 1398 1406 1412 1419 1425 1432 1435 1427 1423 1416 1421 1426 1426 1431 1426 1431 1436 1439 1435 1428 1430 1430 1435 1439 1440 1433 1433 1436 1435 1435 1437 1456 1453 1441 1431
1425 1419 1412 1404 1397 1388 1382 1379 1378 1375 1381 1382 1391 1401 1406 1415 1421 1427 1424 1422 1416 1415 1419 1425 1423 1424 1424 1427 1429 1431 1424 1418 1419 1418 1428 1435 1439 1431 1427 1425 1419 1435 1432 1430 1433 1437 1426
1423 1417 1410 1401 1394 1385 1376 1373 1371 1367 1371 1377 1380 1391 1399 1408 1417 1418 1416 1415 1413 1413 1416 1418 1420 1418 1417 1419 1422 1424 1418 1411 1410 1412 1423 1427 1431 1424 1419 1409 1413 1419 1423 1416 1427 1430 1437
1421 1413 1407 1399 1390 1380 1374 1369 1362 1361 1364 1361 1379 1388 1397 1401 1407 1409 1409 1409 1410 1410 1410 1411 1412 1411 1406 1410 1420 1413 1408 1403 1404 1409 1416 1424 1423 1416 1406 1408 1407 1406 1413 1411 1407 1419 1423
1417 1411 1404 1396 1386 1376 1370 1363 1359 1359 1363 1366 1378 1384 1394 1398 1399 1402 1405 1403 1405 1406 1407 1407 1404 1407 1404 1401 1402 1403 1402 1400 1398 1403 1407 1416 1415 1409 1401 1395 1391 1398 1403 1409 1416 1422 1396
1414 1410 1401 1395 1387 1377 1370 1362 1360 1353 1362 1367 1372 1375 1379 1390 1395 1397 1398 1398 1398 1401 1402 1401 1402 1402 1400 1397 1395 1399 1396 1397 1398 1400 1409 1412 1412 1415 1402 1397 1394 1387 1396 1408 1417 1402 1386
1411 1405 1399 1392 1385 1375 1363 1358 1360 1354 1349 1362 1367 1373 1380 1384 1389 1394 1396 1393 1395 1395 1398 1395 1397 1394 1396 1395 1390 1391 1394 1396 1396 1403 1407 1413 1413 1411 1386 1376 1383 1388 1392 1396 1389 1379 1385
1406 1402 1397 1389 1383 1380 1373 1364 1359 1355 1355 1357 1364 1369 1374 1377 1381 1387 1387 1388 1386 1388 1390 1391 1394 1394 1393 1390 1389 1388 1388 1391 1388 1394 1402 1409 1411 1398 1390 1377 1384 1390 1383 1387 1383 1378 1380
1403 1399 1395 1389 1384 1375 1368 1362 1356 1352 1353 1353 1361 1369 1373 1375 1378 1380 1380 1382 1383 1382 1382 1383 1389 1391 1387 1386 1388 1390 1388 1389 1388 1391 1393 1402 1404 1397 1395 1387 1401 1380 1373 1372 1376 1377 1379
1399 1395 1390 1386 1380 1376 1370 1362 1355 1353 1357 1359 1362 1366 1369 1372 1376 1379 1380 1376 1376 1377 1380 1379 1379 1381 1384 1386 1389 1391 1395 1387 1392 1391 1394 1395 1402 1399 1403 1402 1387 1379 1377 1376 1380 1382 1379
1396 1393 1388 1383 1378 1373 1365 1361 1355 1355 1352 1353 1360 1364 1368 1372 1375 1375 1378 1376 1377 1376 1376 1373 1375 1376 1378 1380 1387 1389 1389 1391 1395 1390 1393 1391 1395 1400 1407 1406 1393 1381 1376 1374 1373 1391 1383
1392 1388 1385 1381 1376 1371 1367 1362 1357 1356 1355 1357 1359 1364 1367 1371 1372 1374 1376 1376 1375 1376 1374 1373 1372 1375 1376 1379 1383 1387 1389 1389 1393 1392 1393 1394 1399 1405 1405 1406 1396 1379 1376 1375 1387 1393 1381
1390 1385 1382 1379 1375 1372 1366 1361 1356 1356 1354 1357 1359 1362 1366 1367 1370 1371 1372 1373 1374 1375 1372 1372 1372 1374 1377 1379 1381 1378 1379 1385 1388 1385 1382 1387 1396 1398 1402 1404 1405 1376 1378 1381 1383 1382 1382
1385 1382 1379 1376 1373 1369 1365 1362 1356 1354 1353 1353 1357 1360 1363 1367 1368 1368 1369 1370 1370 1370 1371 1370 1369 1368 1368 1373 1375 1374 1377 1379 1380 1385 1381 1387 1383 1386 1387 1387 1377 1377 1379 1380 1381 1382 1386